Regional Weather Roundup
Issued by NWS

Home | Current Version | Previous Version | Graphics & Text | Print | Product List | Glossary On
Versions: 1 2 3 4 5 6 7 8 9 10 11 12 13 14 15 16 17 18 19 20 21 22 23 24 25 26 27 28 29 30 31 32 33 34 35 36 37 38 39 40 41 42 43 44 45 46 47 48
000
ASUS45 KBOU 280607
RWRCO

WEATHER ROUNDUP FOR COLORADO
NATIONAL WEATHER SERVICE DENVER/BOULDER CO
1100 PM MST SAT DEC 27 2014

NOTE: "FAIR" INDICATES FEW OR NO CLOUDS BELOW 12000 FEET WITH NO
SIGNIFICANT WEATHER AND/OR OBSTRUCTIONS TO VISIBILITY.

COZ001>005-013-030-031-280700-
...NORTHWEST COLORADO...

CITY           SKY/WX    TMP DP  RH WIND       PRES   REMARKS
CRAIG          CLOUDY     7   3  84 CALM      30.20F
HAYDEN         CLOUDY     7   1  78 E10       30.18F WCI  -8
MEEKER         CLOUDY    12   4  70 NE3       30.20F
MOUNT WERNER   NOT AVBL
STEAMBOAT SPGS CLOUDY    -2  -5  86 CALM      30.18F
WALDEN         PTCLDY    10   0  61 S16G24    30.05F WCI  -7
$$

COZ006>008-011-280700-
...WEST CENTRAL VALLEYS...

CITY           SKY/WX    TMP DP  RH WIND       PRES   REMARKS
GRAND JUNCTION MOCLDY    15  10  80 NE3       30.30S
MONTROSE       PTCLDY    12   6  77 SE6       30.30F WCI   3
EAGLE          PTCLDY     5   1  85 CALM      30.25F
RIFLE          MOCLDY    11   5  77 CALM      30.29S
DELTA          PTCLDY    18  10  71 E7        30.32S WCI   9
NUCLA          PTCLDY    14   9  79 E9        30.29F WCI   2
$$

COZ017>023-064>068-280700-
...SOUTHWEST COLORADO...

CITY           SKY/WX    TMP DP  RH WIND       PRES   REMARKS
DURANGO        MOCLDY     7   4  87 N6        30.24F WCI  -3
CORTEZ         CLEAR     10   5  80 NE6       30.27F WCI   0
PAGOSA SPRINGS CLOUDY    13  12  95 CALM      30.21F
TELLURIDE      MOCLDY     5   1  81 SE7       30.17F WCI  -7
WOLF CREEK PAS   N/A      1   0  92 MISG      30.05F
$$

COZ009-010-012-014-032>034-037-058>063-280700-
...CENTRAL COLORADO...

CITY           SKY/WX    TMP DP  RH WIND       PRES   REMARKS
ASPEN          PTCLDY    -2  -8  76 SW9       30.15F WCI -18
BUENA VISTA    PTCLDY    -5 -11  76 CALM      30.10S
COPPER MTN     PTCLDY     5  -6  61 SW10G16   29.99F WCI -10
BERTHOUD PASS  FAIR      -4  -9  77 NW44G52   29.86F HAZE    WCI -35
COTTONWOOD PAS PTCLDY    14  -8  37 NW3       30.02S
GUNNISON       PTCLDY   -15 N/A N/A NE7       30.25F WCI -31
KREMMLING      PTCLDY    -8 -13  77 SE3       30.19F
LEADVILLE      PTCLDY    -4 -13  65 N9        30.03F WCI -20
MONARCH PASS     N/A     -4  -8  84 MISG      30.03S
SALIDA         PTCLDY    15   0  51 W10G17    30.17S WCI   2
SUNLIGHT       PTCLDY   N/A N/A N/A SW3       30.06F
WILKERSON PASS MOCLDY     5 -13  43 W14G21    29.94F WCI -12
$$

COZ069>075-280700-
...SAN LUIS VALLEY/SANGRE DE CRISTO MOUNTAINS...

CITY           SKY/WX    TMP DP  RH WIND       PRES   REMARKS
ALAMOSA        MOCLDY    -4  -9  79 CALM      30.19S
LA VETA PASS   NOT AVBL
SAGUACHE       MOCLDY     0  -8  71 N15       30.19S WCI -20
$$

COZ035-036-038>040-280700-
...NORTHERN COLORADO FRONT RANGE...

CITY           SKY/WX    TMP DP  RH WIND       PRES   REMARKS
DENVER INTL AP PTCLDY    11   4  73 SW6       30.03F WCI   1
DMNS CITY PARK   N/A     11   8  90 S1        30.04F
AURORA         PTCLDY    13   4  66 S8        30.03F WCI   2
FRONT RANGE AP PTCLDY    12   7  79 S13       30.03F WCI  -3
ERIE MUNI ARPT   N/A      4   1  88 S5        30.05F WCI  -5
BOULDER MUN AP PTCLDY    14  12  92 SW5       30.03F WCI   6
CENTENNIAL     PTCLDY    11   2  67 S5        30.02F WCI   3
BROOMFIELD     PTCLDY    12   9  85 SW6       30.02F WCI   3
FORT COLLINS   PTCLDY    12  10  92 SW5       30.05F WCI   4
LONGMONT       PTCLDY     5   1  84 W5        30.07F WCI  -4
$$

COZ041-046-047-076>085-087-088-280700-
...PIKES PEAK/PALMER DIVIDE AND SOUTHERN FOOTHILLS...

CITY           SKY/WX    TMP DP  RH WIND       PRES   REMARKS
COLO. SPRINGS  MOCLDY    11   4  73 N7        30.04F WCI   0
A. F. ACADEMY  MOCLDY     4  -1  79 N8        30.02F WCI  -9
ELLICOTT       NOT AVBL
FALCON         MOCLDY    11   4  74 CALM      30.02F
FORT CARSON    PTCLDY    14   8  77 NW7       30.04F WCI   3
LIMON          PTCLDY     1  -3  83 N7        30.06F WCI -12
MONUMENT HILL  MOCLDY     9   0  66 SW8       29.99F WCI  -4
TRINIDAD       PTCLDY    13   6  74 SW15      30.06F WCI  -3
$$

COZ042>045-048>051-090-091-280700-
...NORTHEAST COLORADO...

CITY           SKY/WX    TMP DP  RH WIND       PRES   REMARKS
GREELEY ARPT   PTCLDY    -9 -13  84 CALM      30.05F
AKRON          PTCLDY    15   8  73 SW12      30.05F WCI   2
BURLINGTON     PTCLDY    13   7  77 SW13      30.11F WCI  -2
WRAY           PTCLDY     8   4  83 SW8       30.12F WCI  -4
STERLING       PTCLDY     0  -6  78 CALM      30.09F
HOLYOKE        PTCLDY     5   0  78 W8        30.10F WCI  -8
FORT MORGAN    PTCLDY     3   0  86 W6        30.07F WCI  -8
$$

COZ086-089-092>099-280700-
...SOUTHEAST COLORADO...

CITY           SKY/WX    TMP DP  RH WIND       PRES   REMARKS
PUEBLO         PTCLDY    14   9  80 N5        30.10F WCI   6
LA JUNTA       PTCLDY    10   5  80 W6        30.12F WCI   0
LAMAR          CLEAR     11   7  84 E3        30.13F
SPRINGFIELD      N/A     12   9  87 SW6       30.12F WCI   3
$$



USA.gov is the U.S. government's official web portal to all federal, state and local government web resources and services.